TimeAKDT,TemperatureF,Dew PointF,Humidity,Sea Level PressureIn,VisibilityMPH,Wind Direction,Wind SpeedMPH,Gust SpeedMPH,PrecipitationIn,Events,Conditions,WindDirDegrees,DateUTC
12:16 AM,37.4,32.0,81,30.01,10.0,SSE,5.8,-,N/A,,Clear,160,2013-04-08 08:16:00
12:36 AM,37.4,32.0,81,30.02,10.0,SSE,6.9,-,N/A,,Clear,150,2013-04-08 08:36:00
12:56 AM,37.4,30.2,75,30.02,10.0,SE,5.8,-,N/A,,Clear,140,2013-04-08 08:56:00
1:16 AM,35.6,30.2,81,30.02,10.0,SE,6.9,-,N/A,,Clear,140,2013-04-08 09:16:00
1:36 AM,35.6,30.2,81,30.01,10.0,SE,8.1,-,N/A,,Clear,140,2013-04-08 09:36:00
1:56 AM,35.6,30.2,81,30.01,10.0,SE,9.2,-,N/A,,Clear,130,2013-04-08 09:56:00
2:16 AM,35.6,30.2,81,30.01,10.0,SE,8.1,-,N/A,,Clear,140,2013-04-08 10:16:00
2:36 AM,35.6,32.0,87,30.02,10.0,SE,4.6,-,N/A,,Clear,140,2013-04-08 10:36:00
2:56 AM,35.6,30.2,81,30.02,10.0,SE,5.8,-,N/A,,Clear,130,2013-04-08 10:56:00
3:16 AM,35.6,30.2,81,30.02,10.0,SSE,6.9,-,N/A,,Clear,150,2013-04-08 11:16:00
3:36 AM,35.6,30.2,81,30.01,10.0,SE,6.9,-,N/A,,Clear,130,2013-04-08 11:36:00
3:56 AM,35.6,30.2,81,30.01,10.0,SE,6.9,-,N/A,,Clear,130,2013-04-08 11:56:00
4:16 AM,35.6,30.2,81,30.00,10.0,SE,8.1,-,N/A,,Clear,130,2013-04-08 12:16:00
4:36 AM,35.6,30.2,81,30.00,10.0,SE,6.9,-,N/A,,Clear,130,2013-04-08 12:36:00
4:56 AM,35.6,30.2,81,29.99,10.0,SSE,8.1,-,N/A,,Clear,150,2013-04-08 12:56:00
5:16 AM,35.6,30.2,81,29.99,10.0,SSE,6.9,-,N/A,,Clear,160,2013-04-08 13:16:00
5:36 AM,35.6,30.2,81,29.99,10.0,ESE,5.8,-,N/A,,Clear,120,2013-04-08 13:36:00
5:56 AM,35.6,32.0,87,29.99,10.0,ESE,8.1,-,N/A,,Scattered Clouds,120,2013-04-08 13:56:00
6:16 AM,35.6,30.2,81,29.99,10.0,SE,8.1,-,N/A,,Scattered Clouds,130,2013-04-08 14:16:00
6:36 AM,35.6,30.2,81,29.99,10.0,SE,5.8,-,N/A,,Scattered Clouds,130,2013-04-08 14:36:00
6:56 AM,37.4,30.2,75,29.99,10.0,SE,5.8,-,N/A,,Scattered Clouds,130,2013-04-08 14:56:00
7:16 AM,37.4,32.0,81,29.98,10.0,ESE,10.4,-,N/A,,Scattered Clouds,120,2013-04-08 15:16:00
7:36 AM,37.4,32.0,81,29.99,10.0,SE,9.2,-,N/A,,Scattered Clouds,130,2013-04-08 15:36:00
7:56 AM,39.2,33.8,81,29.99,10.0,SE,8.1,-,N/A,,Mostly Cloudy,130,2013-04-08 15:56:00
8:16 AM,39.2,33.8,81,29.98,10.0,ESE,8.1,-,N/A,,Mostly Cloudy,120,2013-04-08 16:16:00
8:36 AM,41.0,33.8,76,29.98,10.0,ESE,5.8,-,N/A,,Mostly Cloudy,120,2013-04-08 16:36:00
8:56 AM,42.8,35.6,76,29.96,10.0,East,10.4,-,N/A,,Mostly Cloudy,90,2013-04-08 16:56:00
9:16 AM,41.0,33.8,76,29.96,10.0,East,11.5,-,N/A,,Mostly Cloudy,100,2013-04-08 17:16:00
9:36 AM,42.8,35.6,76,29.96,10.0,ENE,3.5,-,N/A,,Mostly Cloudy,70,2013-04-08 17:36:00
9:56 AM,44.6,35.6,71,29.96,10.0,ESE,4.6,-,N/A,,Scattered Clouds,120,2013-04-08 17:56:00
10:16 AM,44.6,35.6,71,29.97,10.0,East,4.6,-,N/A,,Scattered Clouds,80,2013-04-08 18:16:00
10:36 AM,44.6,33.8,66,29.96,10.0,Calm,Calm,-,N/A,,Scattered Clouds,0,2013-04-08 18:36:00
10:56 AM,46.4,33.8,62,29.97,10.0,SE,6.9,-,N/A,,Scattered Clouds,140,2013-04-08 18:56:00
11:16 AM,46.4,35.6,66,29.96,10.0,SE,5.8,-,N/A,,Scattered Clouds,130,2013-04-08 19:16:00
11:36 AM,48.2,37.4,66,29.95,10.0,East,8.1,-,N/A,,Scattered Clouds,100,2013-04-08 19:36:00
11:56 AM,51.8,37.4,58,29.94,10.0,ESE,13.8,19.6,N/A,,Scattered Clouds,110,2013-04-08 19:56:00
12:16 PM,51.8,33.8,50,29.93,10.0,ESE,16.1,24.2,N/A,,Scattered Clouds,120,2013-04-08 20:16:00
12:36 PM,51.8,33.8,50,29.92,10.0,ESE,13.8,24.2,N/A,,Scattered Clouds,120,2013-04-08 20:36:00
12:56 PM,53.6,33.8,47,29.92,10.0,ESE,10.4,21.9,N/A,,Mostly Cloudy,120,2013-04-08 20:56:00
1:16 PM,53.6,30.2,41,29.91,10.0,ESE,6.9,16.1,N/A,,Mostly Cloudy,110,2013-04-08 21:16:00
1:36 PM,53.6,30.2,41,29.91,10.0,ESE,6.9,-,N/A,,Mostly Cloudy,120,2013-04-08 21:36:00
1:56 PM,53.6,30.2,41,29.90,10.0,ESE,10.4,16.1,N/A,,Overcast,110,2013-04-08 21:56:00
2:16 PM,53.6,30.2,41,29.89,10.0,ESE,10.4,16.1,N/A,,Overcast,120,2013-04-08 22:16:00
2:36 PM,51.8,30.2,44,29.89,10.0,SE,18.4,25.3,N/A,,Overcast,140,2013-04-08 22:36:00
2:56 PM,51.8,30.2,44,29.90,10.0,ESE,12.7,19.6,N/A,,Overcast,120,2013-04-08 22:56:00
3:16 PM,51.8,30.2,44,29.90,10.0,SE,13.8,28.8,N/A,,Overcast,130,2013-04-08 23:16:00
3:36 PM,50.0,28.4,43,29.90,10.0,SE,12.7,20.7,N/A,,Overcast,130,2013-04-08 23:36:00
3:56 PM,50.0,30.2,47,29.90,10.0,SE,12.7,21.9,N/A,,Overcast,140,2013-04-08 23:56:00
4:16 PM,48.2,30.2,50,29.88,10.0,ESE,21.9,35.7,N/A,,Overcast,120,2013-04-09 00:16:00
4:36 PM,48.2,30.2,50,29.88,10.0,SE,19.6,27.6,N/A,,Overcast,130,2013-04-09 00:36:00
4:56 PM,48.2,30.2,50,29.88,10.0,SE,16.1,26.5,N/A,,Overcast,140,2013-04-09 00:56:00
5:16 PM,48.2,32.0,54,29.89,10.0,SE,15.0,21.9,N/A,,Overcast,130,2013-04-09 01:16:00
5:36 PM,48.2,30.2,50,29.88,10.0,ESE,8.1,24.2,N/A,,Overcast,120,2013-04-09 01:36:00
5:56 PM,48.2,30.2,50,29.87,10.0,SE,17.3,27.6,N/A,,Overcast,130,2013-04-09 01:56:00
6:16 PM,48.2,33.8,58,29.86,10.0,ESE,16.1,24.2,N/A,,Overcast,110,2013-04-09 02:16:00
6:36 PM,48.2,33.8,58,29.86,10.0,ESE,15.0,23.0,N/A,,Overcast,120,2013-04-09 02:36:00
6:56 PM,48.2,33.8,58,29.85,10.0,ESE,13.8,28.8,N/A,,Overcast,110,2013-04-09 02:56:00
7:16 PM,46.4,33.8,62,29.85,10.0,ESE,15.0,23.0,N/A,,Overcast,110,2013-04-09 03:16:00
7:36 PM,46.4,35.6,66,29.85,10.0,ESE,17.3,25.3,N/A,,Overcast,110,2013-04-09 03:36:00
7:56 PM,44.6,33.8,66,29.84,10.0,SE,19.6,29.9,N/A,,Overcast,130,2013-04-09 03:56:00
8:16 PM,44.6,33.8,66,29.84,10.0,SE,16.1,28.8,N/A,,Overcast,140,2013-04-09 04:16:00
8:36 PM,42.8,35.6,76,29.85,10.0,ESE,17.3,23.0,N/A,,Overcast,120,2013-04-09 04:36:00
8:56 PM,42.8,35.6,76,29.85,10.0,SE,16.1,23.0,N/A,,Overcast,130,2013-04-09 04:56:00
9:16 PM,42.8,35.6,76,29.84,10.0,ESE,18.4,24.2,0.01,,Overcast,120,2013-04-09 05:16:00
9:36 PM,42.8,35.6,76,29.83,10.0,SE,18.4,28.8,0.01,,Overcast,130,2013-04-09 05:36:00
9:56 PM,42.8,35.6,76,29.81,10.0,SE,21.9,26.5,0.02,,Overcast,130,2013-04-09 05:56:00
10:16 PM,42.8,33.8,70,29.79,10.0,SE,21.9,32.2,N/A,,Overcast,140,2013-04-09 06:16:00
10:36 PM,42.8,33.8,70,29.79,10.0,SE,17.3,24.2,N/A,,Overcast,140,2013-04-09 06:36:00
10:56 PM,42.8,33.8,70,29.77,10.0,SE,15.0,25.3,N/A,,Overcast,130,2013-04-09 06:56:00
11:16 PM,42.8,35.6,76,29.76,10.0,SE,15.0,19.6,0.01,,Overcast,130,2013-04-09 07:16:00
11:36 PM,42.8,35.6,76,29.73,10.0,ESE,16.1,23.0,0.01,,Overcast,120,2013-04-09 07:36:00
11:56 PM,42.8,35.6,76,29.72,10.0,ESE,13.8,23.0,0.02,,Overcast,120,2013-04-09 07:56:00